Wetterdaten: Freitag, 07.02.2014
Datum Zeit Temperatur Luftfeuchte Luftdruck Regen Wind Richtung Richtung Taupunkt Windchill Windben
07.02.2014 00:00 0,0 C 75 % 1005,9 hPa 0,0 l/m 1,6 km/h (1 Bft) NO 45 -3,9 C 0,8 C 0,0 km/h (0 Bft)
07.02.2014 00:05 0,0 C 75 % 1005,6 hPa 0,0 l/m 2,1 km/h (1 Bft) W-SW 247 -3,9 C 0,9 C 3,1 km/h (1 Bft)
07.02.2014 00:10 0,0 C 75 % 1005,6 hPa 0,0 l/m 1,9 km/h (1 Bft) O 90 -3,9 C 0,5 C 3,4 km/h (1 Bft)
07.02.2014 00:15 0,2 C 74 % 1005,6 hPa 0,0 l/m 1,9 km/h (1 Bft) S 180 -3,9 C 0,5 C 1,6 km/h (1 Bft)
07.02.2014 00:20 0,7 C 73 % 1005,6 hPa 0,0 l/m 1,8 km/h (1 Bft) S 180 -3,6 C 0,8 C 5,3 km/h (1 Bft)
07.02.2014 00:25 0,9 C 73 % 1005,3 hPa 0,0 l/m 2,1 km/h (1 Bft) S 180 -3,4 C 1,0 C 2,3 km/h (1 Bft)
07.02.2014 00:30 1,3 C 69 % 1005,3 hPa 0,0 l/m 2,4 km/h (1 Bft) O 90 -3,7 C 1,6 C 7,4 km/h (2 Bft)
07.02.2014 00:35 1,3 C 69 % 1005,3 hPa 0,0 l/m 2,4 km/h (1 Bft) W 270 -3,7 C 1,9 C 3,9 km/h (1 Bft)
07.02.2014 00:40 1,2 C 68 % 1005,3 hPa 0,0 l/m 1,9 km/h (1 Bft) NO 45 -4,0 C 1,9 C 3,2 km/h (1 Bft)
07.02.2014 00:45 1,2 C 68 % 1005,1 hPa 0,0 l/m 2,1 km/h (1 Bft) O 90 -4,0 C 1,8 C 4,3 km/h (1 Bft)
07.02.2014 00:50 1,9 C 67 % 1005,1 hPa 0,0 l/m 1,6 km/h (1 Bft) N-NO 22 -3,6 C 2,1 C 3,4 km/h (1 Bft)
07.02.2014 00:55 3,1 C 64 % 1005,1 hPa 0,0 l/m 1,9 km/h (1 Bft) W-SW 247 -3,0 C 2,9 C 6,4 km/h (2 Bft)
07.02.2014 01:00 2,7 C 62 % 1005,1 hPa 0,0 l/m 2,7 km/h (1 Bft) O 90 -3,8 C 3,8 C 5,6 km/h (1 Bft)
07.02.2014 01:05 3,2 C 60 % 1005,0 hPa 0,0 l/m 3,1 km/h (1 Bft) S-SO 157 -3,8 C 3,6 C 2,4 km/h (1 Bft)
07.02.2014 01:10 3,3 C 58 % 1005,0 hPa 0,0 l/m 2,9 km/h (1 Bft) SO 135 -4,2 C 3,7 C 0,0 km/h (0 Bft)
07.02.2014 01:15 3,3 C 58 % 1005,0 hPa 0,0 l/m 2,1 km/h (1 Bft) NW 315 -4,2 C 3,7 C 2,9 km/h (1 Bft)
07.02.2014 01:20 2,3 C 59 % 1005,0 hPa 0,0 l/m 2,1 km/h (1 Bft) O-SO 112 -4,9 C 3,1 C 0,0 km/h (0 Bft)
07.02.2014 01:25 1,9 C 59 % 1005,2 hPa 0,0 l/m 1,8 km/h (1 Bft) O-SO 112 -5,2 C 2,8 C 0,0 km/h (0 Bft)
07.02.2014 01:30 1,2 C 62 % 1005,2 hPa 0,0 l/m 1,0 km/h (0 Bft) NO 45 -5,3 C 2,0 C 1,9 km/h (1 Bft)
07.02.2014 01:35 0,9 C 63 % 1005,2 hPa 0,0 l/m 1,8 km/h (1 Bft) NO 45 -5,3 C 1,7 C 3,2 km/h (1 Bft)
07.02.2014 01:40 0,6 C 64 % 1005,2 hPa 0,0 l/m 1,9 km/h (1 Bft) O-SO 112 -5,4 C 1,1 C 3,5 km/h (1 Bft)
07.02.2014 01:45 1,3 C 64 % 1005,1 hPa 0,0 l/m 1,4 km/h (1 Bft) O 90 -4,7 C 0,9 C 0,0 km/h (0 Bft)
07.02.2014 01:50 1,0 C 64 % 1005,1 hPa 0,0 l/m 1,4 km/h (1 Bft) S 180 -5,0 C 1,0 C 2,9 km/h (1 Bft)
07.02.2014 01:54 0,6 C 64 % 1005,1 hPa 0,0 l/m 1,0 km/h (0 Bft) S-SW 202 -5,4 C 1,0 C 2,4 km/h (1 Bft)
07.02.2014 01:55 0,6 C 64 % 1005,1 hPa 0,0 l/m 1,0 km/h (0 Bft) S-SW 202 -5,4 C 1,0 C 2,4 km/h (1 Bft)
07.02.2014 02:00 0,2 C 66 % 1005,1 hPa 0,0 l/m 1,3 km/h (1 Bft) NO 45 -5,4 C 0,8 C 2,4 km/h (1 Bft)
07.02.2014 02:05 0,3 C 67 % 1004,8 hPa 0,0 l/m 1,1 km/h (1 Bft) W-NW 292 -5,1 C 1,0 C 3,5 km/h (1 Bft)
07.02.2014 02:10 -0,1 C 69 % 1004,8 hPa 0,0 l/m 1,8 km/h (1 Bft) N-NW 337 -5,1 C 0,5 C 3,2 km/h (1 Bft)
07.02.2014 02:15 -0,3 C 68 % 1004,8 hPa 0,0 l/m 1,9 km/h (1 Bft) NO 45 -5,5 C 0,2 C 4,2 km/h (1 Bft)
07.02.2014 02:20 0,0 C 69 % 1004,8 hPa 0,0 l/m 1,1 km/h (1 Bft) S 180 -5,0 C 0,1 C 0,0 km/h (0 Bft)
07.02.2014 02:25 -0,5 C 68 % 1004,9 hPa 0,0 l/m 0,8 km/h (0 Bft) S 180 -5,7 C 0,0 C 2,4 km/h (1 Bft)
07.02.2014 02:30 -0,5 C 69 % 1004,9 hPa 0,0 l/m 0,6 km/h (0 Bft) O 90 -5,5 C -0,3 C 0,0 km/h (0 Bft)
07.02.2014 02:35 -0,7 C 69 % 1004,9 hPa 0,0 l/m 0,6 km/h (0 Bft) NO 45 -5,7 C -0,3 C 0,0 km/h (0 Bft)
07.02.2014 02:40 -0,9 C 70 % 1004,9 hPa 0,0 l/m 0,5 km/h (0 Bft) NO 45 -5,7 C -0,6 C 0,0 km/h (0 Bft)
07.02.2014 02:45 -1,0 C 70 % 1004,8 hPa 0,0 l/m 0,3 km/h (0 Bft) NO 45 -5,8 C -0,8 C 0,0 km/h (0 Bft)
07.02.2014 02:50 -1,0 C 70 % 1004,8 hPa 0,0 l/m 0,5 km/h (0 Bft) O 90 -5,8 C -0,9 C 0,0 km/h (0 Bft)
07.02.2014 02:55 -0,9 C 70 % 1004,8 hPa 0,0 l/m 1,0 km/h (0 Bft) O 90 -5,7 C -0,6 C 4,3 km/h (1 Bft)
07.02.2014 03:00 -0,2 C 71 % 1004,8 hPa 0,0 l/m 1,1 km/h (1 Bft) N-NW 337 -4,8 C 0,5 C 0,0 km/h (0 Bft)
07.02.2014 03:05 0,1 C 71 % 1004,4 hPa 0,0 l/m 1,8 km/h (1 Bft) SW 225 -4,5 C 1,2 C 3,1 km/h (1 Bft)
07.02.2014 03:10 2,0 C 70 % 1004,4 hPa 0,0 l/m 1,9 km/h (1 Bft) W 270 -2,9 C 2,7 C 4,5 km/h (1 Bft)
07.02.2014 03:15 3,0 C 67 % 1004,4 hPa 0,0 l/m 2,6 km/h (1 Bft) O-SO 112 -2,5 C 3,8 C 5,3 km/h (1 Bft)
07.02.2014 03:20 3,6 C 65 % 1004,4 hPa 0,0 l/m 2,6 km/h (1 Bft) N 360 -2,4 C 5,1 C 2,3 km/h (1 Bft)
07.02.2014 03:25 3,4 C 64 % 1004,2 hPa 0,0 l/m 2,1 km/h (1 Bft) NO 45 -2,7 C 5,4 C 0,0 km/h (0 Bft)
07.02.2014 03:30 4,5 C 59 % 1004,2 hPa 0,0 l/m 2,1 km/h (1 Bft) W 270 -2,8 C 5,7 C 3,5 km/h (1 Bft)
07.02.2014 03:35 4,3 C 60 % 1004,2 hPa 0,0 l/m 2,3 km/h (1 Bft) W-NW 292 -2,8 C 6,1 C 4,8 km/h (1 Bft)
07.02.2014 03:40 4,2 C 59 % 1004,2 hPa 0,0 l/m 2,6 km/h (1 Bft) NO 45 -3,1 C 6,2 C 5,1 km/h (1 Bft)
07.02.2014 03:45 4,5 C 59 % 1003,4 hPa 0,0 l/m 2,7 km/h (1 Bft) N-NO 22 -2,8 C 6,4 C 1,6 km/h (1 Bft)
07.02.2014 03:50 4,4 C 59 % 1003,4 hPa 0,0 l/m 2,4 km/h (1 Bft) NO 45 -2,9 C 6,6 C 2,9 km/h (1 Bft)
07.02.2014 03:55 4,6 C 58 % 1003,4 hPa 0,0 l/m 2,1 km/h (1 Bft) NW 315 -2,9 C 6,7 C 2,9 km/h (1 Bft)
07.02.2014 04:00 5,1 C 57 % 1003,4 hPa 0,0 l/m 2,9 km/h (1 Bft) W 270 -2,7 C 7,0 C 7,6 km/h (2 Bft)
07.02.2014 04:05 5,0 C 57 % 1003,4 hPa 0,0 l/m 2,9 km/h (1 Bft) NO 45 -2,8 C 7,0 C 3,4 km/h (1 Bft)
07.02.2014 04:10 5,0 C 56 % 1003,4 hPa 0,0 l/m 2,9 km/h (1 Bft) W-NW 292 -3,0 C 7,0 C 3,5 km/h (1 Bft)
07.02.2014 04:15 5,0 C 57 % 1003,4 hPa 0,0 l/m 2,3 km/h (1 Bft) O 90 -2,8 C 7,0 C 5,0 km/h (1 Bft)
07.02.2014 04:20 5,3 C 56 % 1003,4 hPa 0,0 l/m 2,4 km/h (1 Bft) W 270 -2,8 C 7,0 C 6,6 km/h (2 Bft)
07.02.2014 04:25 5,5 C 54 % 1003,1 hPa 0,0 l/m 3,1 km/h (1 Bft) NO 45 -3,1 C 7,1 C 2,1 km/h (1 Bft)
07.02.2014 04:30 5,9 C 54 % 1003,1 hPa 0,0 l/m 3,5 km/h (1 Bft) W-SW 247 -2,7 C 7,1 C 5,8 km/h (2 Bft)
07.02.2014 04:35 5,7 C 54 % 1003,1 hPa 0,0 l/m 3,4 km/h (1 Bft) O-NO 67 -2,9 C 7,2 C 1,9 km/h (1 Bft)
07.02.2014 04:40 6,2 C 50 % 1003,1 hPa 0,0 l/m 3,2 km/h (1 Bft) N-NW 337 -3,4 C 7,2 C 8,4 km/h (2 Bft)
07.02.2014 04:45 5,7 C 53 % 1002,9 hPa 0,0 l/m 2,4 km/h (1 Bft) W-SW 247 -3,1 C 7,0 C 6,4 km/h (2 Bft)
07.02.2014 04:50 5,3 C 54 % 1002,9 hPa 0,0 l/m 2,1 km/h (1 Bft) NO 45 -3,2 C 6,8 C 5,0 km/h (1 Bft)
07.02.2014 04:55 5,7 C 53 % 1002,9 hPa 0,0 l/m 2,6 km/h (1 Bft) SW 225 -3,1 C 6,9 C 3,1 km/h (1 Bft)
07.02.2014 05:00 5,9 C 53 % 1002,9 hPa 0,0 l/m 3,9 km/h (1 Bft) NO 45 -2,9 C 7,1 C 3,7 km/h (1 Bft)
07.02.2014 05:05 5,9 C 52 % 1002,6 hPa 0,0 l/m 4,3 km/h (1 Bft) W-NW 292 -3,2 C 7,3 C 7,1 km/h (2 Bft)
07.02.2014 05:10 6,5 C 50 % 1002,6 hPa 0,0 l/m 4,3 km/h (1 Bft) W-SW 247 -3,2 C 7,4 C 3,7 km/h (1 Bft)
07.02.2014 05:15 6,3 C 50 % 1002,6 hPa 0,0 l/m 4,7 km/h (1 Bft) N 360 -3,3 C 7,4 C 3,9 km/h (1 Bft)
07.02.2014 05:20 6,2 C 50 % 1002,6 hPa 0,0 l/m 4,7 km/h (1 Bft) W-NW 292 -3,4 C 7,6 C 7,2 km/h (2 Bft)
07.02.2014 05:25 6,1 C 50 % 1002,4 hPa 0,0 l/m 4,5 km/h (1 Bft) W-NW 292 -3,5 C 7,8 C 6,3 km/h (2 Bft)
07.02.2014 05:30 5,9 C 52 % 1002,4 hPa 0,0 l/m 3,7 km/h (1 Bft) W-NW 292 -3,2 C 7,6 C 3,9 km/h (1 Bft)
07.02.2014 05:35 5,5 C 53 % 1002,4 hPa 0,0 l/m 3,5 km/h (1 Bft) W-SW 247 -3,3 C 7,6 C 4,2 km/h (1 Bft)
07.02.2014 05:40 5,8 C 53 % 1002,4 hPa 0,0 l/m 3,4 km/h (1 Bft) W 270 -3,0 C 7,3 C 5,8 km/h (2 Bft)
07.02.2014 05:45 5,8 C 53 % 1002,2 hPa 0,0 l/m 2,6 km/h (1 Bft) O-SO 112 -3,0 C 7,1 C 1,8 km/h (1 Bft)
07.02.2014 05:50 6,2 C 51 % 1002,2 hPa 0,0 l/m 2,1 km/h (1 Bft) W-SW 247 -3,2 C 6,9 C 1,9 km/h (1 Bft)
07.02.2014 05:55 6,0 C 51 % 1002,2 hPa 0,0 l/m 2,7 km/h (1 Bft) S-SW 202 -3,4 C 7,0 C 2,4 km/h (1 Bft)
07.02.2014 06:00 6,4 C 50 % 1002,2 hPa 0,0 l/m 4,3 km/h (1 Bft) S-SO 157 -3,2 C 6,9 C 8,7 km/h (2 Bft)
07.02.2014 06:05 6,1 C 50 % 1002,3 hPa 0,0 l/m 4,3 km/h (1 Bft) W-SW 247 -3,5 C 7,3 C 2,4 km/h (1 Bft)
07.02.2014 06:10 6,1 C 50 % 1002,3 hPa 0,0 l/m 3,9 km/h (1 Bft) W-NW 292 -3,5 C 7,6 C 4,3 km/h (1 Bft)
07.02.2014 06:15 6,2 C 50 % 1002,3 hPa 0,0 l/m 3,1 km/h (1 Bft) O 90 -3,4 C 7,6 C 4,5 km/h (1 Bft)
07.02.2014 06:20 6,0 C 50 % 1002,3 hPa 0,0 l/m 1,9 km/h (1 Bft) NO 45 -3,6 C 7,1 C 1,9 km/h (1 Bft)
07.02.2014 06:25 6,0 C 50 % 1002,8 hPa 0,0 l/m 2,6 km/h (1 Bft) S-SW 202 -3,6 C 7,0 C 6,8 km/h (2 Bft)
07.02.2014 06:30 6,5 C 50 % 1002,8 hPa 0,0 l/m 3,7 km/h (1 Bft) S 180 -3,2 C 7,6 C 2,3 km/h (1 Bft)
07.02.2014 06:35 6,1 C 50 % 1002,8 hPa 0,0 l/m 3,7 km/h (1 Bft) SO 135 -3,5 C 7,7 C 4,8 km/h (1 Bft)
07.02.2014 06:40 7,4 C 45 % 1002,8 hPa 0,0 l/m 4,0 km/h (1 Bft) S 180 -3,7 C 7,7 C 9,0 km/h (2 Bft)
07.02.2014 06:45 7,8 C 44 % 1003,2 hPa 0,0 l/m 6,0 km/h (2 Bft) S 180 -3,7 C 7,9 C 7,4 km/h (2 Bft)
07.02.2014 06:50 7,8 C 44 % 1003,2 hPa 0,0 l/m 6,9 km/h (2 Bft) S-SO 157 -3,7 C 7,8 C 10,5 km/h (2 Bft)
07.02.2014 06:54 7,5 C 44 % 1003,2 hPa 0,0 l/m 5,8 km/h (2 Bft) S 180 -3,9 C 8,6 C 4,7 km/h (1 Bft)
07.02.2014 06:55 7,5 C 44 % 1003,2 hPa 0,0 l/m 5,8 km/h (2 Bft) S 180 -3,9 C 8,6 C 4,7 km/h (1 Bft)
07.02.2014 07:00 6,7 C 45 % 1003,2 hPa 0,0 l/m 4,0 km/h (1 Bft) W-SW 247 -4,4 C 8,8 C 0,0 km/h (0 Bft)
07.02.2014 07:05 6,7 C 46 % 1004,3 hPa 0,0 l/m 3,9 km/h (1 Bft) NO 45 -4,1 C 8,1 C 5,0 km/h (1 Bft)
07.02.2014 07:10 6,4 C 46 % 1004,3 hPa 0,0 l/m 3,2 km/h (1 Bft) S-SO 157 -4,4 C 7,3 C 3,9 km/h (1 Bft)
07.02.2014 07:15 6,1 C 47 % 1004,3 hPa 0,0 l/m 3,4 km/h (1 Bft) S-SW 202 -4,3 C 7,0 C 2,7 km/h (1 Bft)
07.02.2014 07:20 5,1 C 50 % 1004,3 hPa 0,0 l/m 2,6 km/h (1 Bft) S-SO 157 -4,4 C 6,2 C 7,2 km/h (2 Bft)
07.02.2014 07:25 5,2 C 51 % 1004,8 hPa 0,0 l/m 4,2 km/h (1 Bft) S 180 -4,1 C 5,7 C 7,1 km/h (2 Bft)
07.02.2014 07:30 5,3 C 51 % 1004,8 hPa 0,0 l/m 8,4 km/h (2 Bft) S 180 -4,0 C 3,2 C 17,7 km/h (3 Bft)
07.02.2014 07:35 5,2 C 50 % 1004,8 hPa 0,0 l/m 8,4 km/h (2 Bft) W-SW 247 -4,4 C 3,2 C 7,2 km/h (2 Bft)
07.02.2014 07:40 4,6 C 51 % 1004,8 hPa 0,0 l/m 5,3 km/h (1 Bft) W-SW 247 -4,6 C 5,3 C 4,2 km/h (1 Bft)
07.02.2014 07:45 4,3 C 52 % 1004,9 hPa 0,0 l/m 4,2 km/h (1 Bft) S 180 -4,7 C 5,3 C 3,5 km/h (1 Bft)
07.02.2014 07:50 4,2 C 53 % 1004,9 hPa 0,0 l/m 3,1 km/h (1 Bft) O-SO 112 -4,5 C 5,2 C 2,3 km/h (1 Bft)
07.02.2014 07:55 4,2 C 54 % 1004,9 hPa 0,0 l/m 2,9 km/h (1 Bft) N 360 -4,3 C 4,9 C 4,3 km/h (1 Bft)
07.02.2014 08:00 4,2 C 53 % 1004,9 hPa 0,0 l/m 2,9 km/h (1 Bft) NO 45 -4,5 C 4,5 C 5,8 km/h (2 Bft)
07.02.2014 08:05 4,1 C 54 % 1004,8 hPa 0,0 l/m 2,9 km/h (1 Bft) O-SO 112 -4,4 C 4,5 C 1,8 km/h (1 Bft)
07.02.2014 08:10 3,7 C 56 % 1004,8 hPa 0,0 l/m 2,3 km/h (1 Bft) NO 45 -4,2 C 4,1 C 3,1 km/h (1 Bft)
07.02.2014 08:15 4,2 C 55 % 1004,8 hPa 0,0 l/m 1,9 km/h (1 Bft) SO 135 -4,0 C 4,1 C 2,6 km/h (1 Bft)
07.02.2014 08:20 4,7 C 54 % 1004,8 hPa 0,0 l/m 2,7 km/h (1 Bft) O-SO 112 -3,8 C 4,5 C 3,1 km/h (1 Bft)
07.02.2014 08:25 4,9 C 53 % 1004,4 hPa 0,0 l/m 3,2 km/h (1 Bft) O-SO 112 -3,9 C 4,6 C 4,2 km/h (1 Bft)
07.02.2014 08:30 4,8 C 54 % 1004,4 hPa 0,0 l/m 2,4 km/h (1 Bft) N-NO 22 -3,7 C 4,8 C 3,1 km/h (1 Bft)
07.02.2014 08:35 4,7 C 54 % 1004,4 hPa 0,0 l/m 2,7 km/h (1 Bft) NO 45 -3,8 C 4,9 C 4,7 km/h (1 Bft)
07.02.2014 08:40 4,5 C 55 % 1004,4 hPa 0,0 l/m 3,4 km/h (1 Bft) O 90 -3,7 C 4,8 C 3,2 km/h (1 Bft)
07.02.2014 08:45 4,5 C 55 % 1004,2 hPa 0,0 l/m 2,4 km/h (1 Bft) O 90 -3,7 C 4,9 C 1,9 km/h (1 Bft)
07.02.2014 08:50 4,3 C 56 % 1004,2 hPa 0,0 l/m 0,6 km/h (0 Bft) O 90 -3,7 C 4,8 C 0,0 km/h (0 Bft)
07.02.2014 08:55 3,9 C 58 % 1004,2 hPa 0,0 l/m 0,5 km/h (0 Bft) NO 45 -3,6 C 4,5 C 2,4 km/h (1 Bft)
07.02.2014 09:00 3,8 C 59 % 1004,2 hPa 0,0 l/m 1,0 km/h (0 Bft) N-NW 337 -3,5 C 4,5 C 3,9 km/h (1 Bft)
07.02.2014 09:05 3,5 C 59 % 1003,4 hPa 0,0 l/m 1,6 km/h (1 Bft) N 360 -3,7 C 4,5 C 2,9 km/h (1 Bft)
07.02.2014 09:10 3,6 C 59 % 1003,4 hPa 0,0 l/m 1,3 km/h (1 Bft) W 270 -3,6 C 4,4 C 2,6 km/h (1 Bft)
07.02.2014 09:15 3,8 C 59 % 1003,4 hPa 0,0 l/m 0,8 km/h (0 Bft) N-NW 337 -3,5 C 4,4 C 0,0 km/h (0 Bft)
07.02.2014 09:20 3,7 C 59 % 1003,4 hPa 0,0 l/m 1,1 km/h (1 Bft) S 180 -3,6 C 4,3 C 2,6 km/h (1 Bft)
07.02.2014 09:25 3,7 C 59 % 1003,8 hPa 0,0 l/m 1,8 km/h (1 Bft) SO 135 -3,6 C 4,2 C 2,3 km/h (1 Bft)
07.02.2014 09:30 4,1 C 58 % 1003,8 hPa 0,0 l/m 2,4 km/h (1 Bft) SO 135 -3,4 C 4,3 C 3,4 km/h (1 Bft)
07.02.2014 09:35 4,1 C 59 % 1003,8 hPa 0,0 l/m 2,3 km/h (1 Bft) O 90 -3,2 C 4,3 C 3,1 km/h (1 Bft)
07.02.2014 09:40 4,0 C 58 % 1003,8 hPa 0,0 l/m 3,9 km/h (1 Bft) O 90 -3,5 C 3,7 C 4,7 km/h (1 Bft)
07.02.2014 09:45 4,1 C 57 % 1003,7 hPa 0,0 l/m 5,0 km/h (1 Bft) O 90 -3,6 C 3,1 C 6,0 km/h (2 Bft)
07.02.2014 09:50 3,8 C 57 % 1003,7 hPa 0,0 l/m 4,5 km/h (1 Bft) O-NO 67 -3,9 C 3,2 C 3,9 km/h (1 Bft)
07.02.2014 09:55 3,8 C 58 % 1003,7 hPa 0,0 l/m 4,2 km/h (1 Bft) O 90 -3,7 C 3,2 C 5,1 km/h (1 Bft)
07.02.2014 10:00 3,4 C 59 % 1003,7 hPa 0,0 l/m 3,4 km/h (1 Bft) O-NO 67 -3,8 C 3,4 C 0,0 km/h (0 Bft)
07.02.2014 10:05 3,0 C 59 % 1004,0 hPa 0,0 l/m 1,9 km/h (1 Bft) O 90 -4,2 C 3,8 C 0,0 km/h (0 Bft)
07.02.2014 10:10 4,4 C 58 % 1004,0 hPa 0,0 l/m 2,3 km/h (1 Bft) O 90 -3,1 C 4,2 C 7,2 km/h (2 Bft)
07.02.2014 10:15 4,0 C 58 % 1004,0 hPa 0,0 l/m 2,9 km/h (1 Bft) NO 45 -3,5 C 5,2 C 0,0 km/h (0 Bft)
07.02.2014 10:20 3,7 C 59 % 1004,0 hPa 0,0 l/m 0,6 km/h (0 Bft) NO 45 -3,6 C 6,8 C 0,0 km/h (0 Bft)
07.02.2014 10:25 3,8 C 60 % 1004,2 hPa 0,0 l/m 0,2 km/h (0 Bft) O-SO 112 -3,2 C 8,5 C 3,4 km/h (1 Bft)
07.02.2014 10:30 3,5 C 60 % 1004,2 hPa 0,0 l/m 0,3 km/h (0 Bft) O-SO 112 -3,5 C 10,9 C 0,0 km/h (0 Bft)
07.02.2014 10:35 4,5 C 58 % 1004,2 hPa 0,0 l/m 1,3 km/h (1 Bft) SO 135 -3,0 C 11,8 C 2,6 km/h (1 Bft)
07.02.2014 10:40 5,5 C 56 % 1004,2 hPa 0,0 l/m 2,6 km/h (1 Bft) SO 135 -2,6 C 13,1 C 5,8 km/h (2 Bft)
07.02.2014 10:45 5,9 C 55 % 1004,8 hPa 0,0 l/m 3,2 km/h (1 Bft) S 180 -2,4 C 13,4 C 4,5 km/h (1 Bft)
07.02.2014 10:50 5,8 C 54 % 1004,8 hPa 0,0 l/m 3,5 km/h (1 Bft) S 180 -2,8 C 13,9 C 2,6 km/h (1 Bft)
07.02.2014 10:55 5,8 C 53 % 1004,8 hPa 0,0 l/m 3,4 km/h (1 Bft) S 180 -3,0 C 14,3 C 6,4 km/h (2 Bft)
07.02.2014 11:00 5,9 C 53 % 1004,8 hPa 0,0 l/m 4,3 km/h (1 Bft) S 180 -2,9 C 14,3 C 6,8 km/h (2 Bft)
07.02.2014 11:05 6,0 C 52 % 1005,3 hPa 0,0 l/m 5,5 km/h (1 Bft) S-SW 202 -3,1 C 14,0 C 6,1 km/h (2 Bft)
07.02.2014 11:10 6,2 C 52 % 1005,3 hPa 0,0 l/m 5,0 km/h (1 Bft) S-SO 157 -2,9 C 14,3 C 4,5 km/h (1 Bft)
07.02.2014 11:15 6,8 C 50 % 1005,3 hPa 0,0 l/m 4,5 km/h (1 Bft) S 180 -2,9 C 14,3 C 7,1 km/h (2 Bft)
07.02.2014 11:20 7,9 C 48 % 1005,3 hPa 0,0 l/m 6,4 km/h (2 Bft) S-SO 157 -2,4 C 13,6 C 9,8 km/h (2 Bft)
07.02.2014 11:25 8,4 C 46 % 1006,3 hPa 0,0 l/m 8,0 km/h (2 Bft) S 180 -2,5 C 11,8 C 7,7 km/h (2 Bft)
07.02.2014 11:30 8,4 C 45 % 1006,3 hPa 0,0 l/m 9,2 km/h (2 Bft) S 180 -2,8 C 11,7 C 21,2 km/h (4 Bft)
07.02.2014 11:35 8,2 C 46 % 1006,3 hPa 0,0 l/m 9,8 km/h (2 Bft) SW 225 -2,7 C 10,9 C 16,4 km/h (3 Bft)
07.02.2014 11:40 8,3 C 47 % 1006,3 hPa 0,0 l/m 13,5 km/h (3 Bft) S 180 -2,3 C 7,8 C 27,0 km/h (4 Bft)
07.02.2014 11:45 8,1 C 48 % 1006,9 hPa 0,0 l/m 14,5 km/h (3 Bft) S-SW 202 -2,2 C 6,3 C 16,3 km/h (3 Bft)
07.02.2014 11:50 8,4 C 49 % 1006,9 hPa 0,0 l/m 13,4 km/h (3 Bft) S 180 -1,7 C 6,9 C 12,6 km/h (3 Bft)
07.02.2014 11:54 8,2 C 49 % 1006,9 hPa 0,0 l/m 14,8 km/h (3 Bft) S 180 -1,9 C 6,1 C 20,0 km/h (4 Bft)
07.02.2014 11:55 8,2 C 49 % 1006,9 hPa 0,0 l/m 14,8 km/h (3 Bft) S 180 -1,9 C 6,1 C 20,0 km/h (4 Bft)
07.02.2014 12:00 8,4 C 50 % 1006,9 hPa 0,0 l/m 14,8 km/h (3 Bft) S 180 -1,4 C 5,3 C 19,5 km/h (3 Bft)
07.02.2014 12:05 8,1 C 53 % 1007,8 hPa 0,0 l/m 13,7 km/h (3 Bft) S 180 -0,9 C 4,9 C 15,9 km/h (3 Bft)
07.02.2014 12:10 7,9 C 56 % 1007,8 hPa 0,0 l/m 14,2 km/h (3 Bft) S 180 -0,3 C 3,8 C 14,8 km/h (3 Bft)
07.02.2014 12:15 7,8 C 56 % 1007,8 hPa 0,0 l/m 12,9 km/h (3 Bft) W-SW 247 -0,4 C 5,4 C 13,7 km/h (3 Bft)
07.02.2014 12:20 7,6 C 57 % 1007,8 hPa 0,0 l/m 10,9 km/h (2 Bft) O 90 -0,4 C 7,0 C 12,6 km/h (3 Bft)
07.02.2014 12:25 8,1 C 57 % 1007,7 hPa 0,0 l/m 11,6 km/h (2 Bft) S 180 0,1 C 6,8 C 11,7 km/h (2 Bft)
07.02.2014 12:30 8,5 C 57 % 1007,7 hPa 0,0 l/m 11,6 km/h (2 Bft) S 180 0,5 C 6,6 C 18,7 km/h (3 Bft)
07.02.2014 12:35 8,0 C 58 % 1007,7 hPa 0,0 l/m 12,2 km/h (2 Bft) S 180 0,3 C 5,3 C 14,6 km/h (3 Bft)
07.02.2014 12:40 7,6 C 59 % 1007,7 hPa 0,0 l/m 12,9 km/h (3 Bft) S-SW 202 0,1 C 3,8 C 17,2 km/h (3 Bft)
07.02.2014 12:45 7,5 C 60 % 1007,7 hPa 0,0 l/m 12,6 km/h (3 Bft) S-SW 202 0,2 C 3,5 C 11,4 km/h (2 Bft)
07.02.2014 12:50 7,5 C 60 % 1007,7 hPa 0,0 l/m 13,8 km/h (3 Bft) S-SO 157 0,2 C 2,9 C 16,4 km/h (3 Bft)
07.02.2014 12:55 7,5 C 62 % 1007,7 hPa 0,0 l/m 14,8 km/h (3 Bft) S 180 0,7 C 3,0 C 16,1 km/h (3 Bft)
07.02.2014 13:00 8,0 C 60 % 1007,7 hPa 0,0 l/m 15,9 km/h (3 Bft) S-SW 202 0,7 C 2,4 C 29,5 km/h (5 Bft)
07.02.2014 13:05 8,1 C 60 % 1007,8 hPa 0,0 l/m 15,4 km/h (3 Bft) S 180 0,8 C 3,3 C 15,4 km/h (3 Bft)
07.02.2014 13:10 8,3 C 59 % 1007,8 hPa 0,0 l/m 14,6 km/h (3 Bft) W 270 0,8 C 3,1 C 16,1 km/h (3 Bft)
07.02.2014 13:15 8,3 C 59 % 1007,8 hPa 0,0 l/m 13,7 km/h (3 Bft) W-SW 247 0,8 C 3,7 C 12,6 km/h (3 Bft)
07.02.2014 13:20 8,0 C 60 % 1007,8 hPa 0,0 l/m 12,4 km/h (3 Bft) S-SW 202 0,7 C 4,9 C 11,9 km/h (2 Bft)
07.02.2014 13:25 7,7 C 60 % 1007,8 hPa 0,0 l/m 11,3 km/h (2 Bft) S 180 0,4 C 5,7 C 15,3 km/h (3 Bft)
07.02.2014 13:30 7,3 C 62 % 1007,8 hPa 0,0 l/m 10,3 km/h (2 Bft) S 180 0,5 C 5,0 C 8,0 km/h (2 Bft)
07.02.2014 13:35 7,1 C 63 % 1007,8 hPa 0,0 l/m 10,1 km/h (2 Bft) S-SW 202 0,5 C 4,3 C 11,6 km/h (2 Bft)
07.02.2014 13:40 6,7 C 66 % 1007,8 hPa 0,0 l/m 9,8 km/h (2 Bft) S-SO 157 0,8 C 3,8 C 11,9 km/h (2 Bft)
07.02.2014 13:45 6,8 C 66 % 1008,1 hPa 0,0 l/m 10,1 km/h (2 Bft) W-SW 247 0,9 C 3,0 C 6,1 km/h (2 Bft)
07.02.2014 13:50 6,7 C 66 % 1008,1 hPa 0,0 l/m 12,1 km/h (2 Bft) S 180 0,8 C 1,4 C 28,6 km/h (4 Bft)
07.02.2014 13:55 6,3 C 68 % 1008,1 hPa 0,0 l/m 15,3 km/h (3 Bft) S 180 0,8 C -1,7 C 26,7 km/h (4 Bft)
07.02.2014 14:00 5,8 C 72 % 1008,1 hPa 0,0 l/m 16,3 km/h (3 Bft) S-SW 202 1,2 C -3,5 C 21,6 km/h (4 Bft)
07.02.2014 14:05 5,5 C 74 % 1008,2 hPa 0,0 l/m 14,6 km/h (3 Bft) S 180 1,2 C -3,1 C 22,2 km/h (4 Bft)
07.02.2014 14:10 5,0 C 77 % 1008,2 hPa 0,0 l/m 15,0 km/h (3 Bft) S-SO 157 1,3 C -4,3 C 29,6 km/h (5 Bft)
07.02.2014 14:15 4,7 C 80 % 1008,2 hPa 0,0 l/m 14,0 km/h (3 Bft) S 180 1,6 C -4,0 C 8,5 km/h (2 Bft)
07.02.2014 14:20 4,4 C 83 % 1008,2 hPa 0,0 l/m 11,4 km/h (2 Bft) S-SO 157 1,8 C -2,2 C 9,7 km/h (2 Bft)
07.02.2014 14:25 4,2 C 85 % 1008,5 hPa 0,0 l/m 11,7 km/h (2 Bft) S-SW 202 1,9 C -2,8 C 15,6 km/h (3 Bft)
07.02.2014 14:30 3,9 C 87 % 1008,5 hPa 0,0 l/m 12,6 km/h (3 Bft) S 180 1,9 C -3,9 C 17,5 km/h (3 Bft)
07.02.2014 14:35 3,8 C 88 % 1008,5 hPa 0,0 l/m 11,3 km/h (2 Bft) S-SO 157 2,0 C -2,8 C 8,9 km/h (2 Bft)
07.02.2014 14:40 3,7 C 89 % 1008,5 hPa 0,0 l/m 8,0 km/h (2 Bft) S-SO 157 2,1 C 0,7 C 7,2 km/h (2 Bft)
07.02.2014 14:45 3,7 C 90 % 1008,5 hPa 0,0 l/m 6,9 km/h (2 Bft) S-SO 157 2,2 C 1,9 C 7,2 km/h (2 Bft)
07.02.2014 14:50 3,7 C 90 % 1008,5 hPa 0,0 l/m 7,1 km/h (2 Bft) S-SO 157 2,2 C 1,7 C 7,4 km/h (2 Bft)
07.02.2014 14:55 3,7 C 91 % 1008,5 hPa 0,0 l/m 6,8 km/h (2 Bft) W-SW 247 2,4 C 2,2 C 10,1 km/h (2 Bft)
07.02.2014 15:00 3,7 C 91 % 1008,5 hPa 0,0 l/m 5,5 km/h (1 Bft) S 180 2,4 C 3,0 C 9,0 km/h (2 Bft)
07.02.2014 15:05 3,7 C 92 % 1008,4 hPa 0,0 l/m 5,6 km/h (1 Bft) O-SO 112 2,5 C 2,9 C 5,0 km/h (1 Bft)
07.02.2014 15:10 3,8 C 92 % 1008,4 hPa 0,0 l/m 5,0 km/h (1 Bft) S 180 2,6 C 3,3 C 4,0 km/h (1 Bft)
07.02.2014 15:15 3,7 C 92 % 1008,4 hPa 0,0 l/m 5,0 km/h (1 Bft) SO 135 2,5 C 3,3 C 7,6 km/h (2 Bft)
07.02.2014 15:20 3,7 C 92 % 1008,4 hPa 0,0 l/m 5,0 km/h (1 Bft) S 180 2,5 C 3,3 C 7,1 km/h (2 Bft)
07.02.2014 15:25 3,6 C 92 % 1008,5 hPa 0,0 l/m 5,1 km/h (1 Bft) S 180 2,4 C 3,2 C 6,1 km/h (2 Bft)
07.02.2014 15:30 3,5 C 93 % 1008,5 hPa 0,0 l/m 6,3 km/h (2 Bft) O-SO 112 2,5 C 2,7 C 8,5 km/h (2 Bft)
07.02.2014 15:35 3,6 C 93 % 1008,5 hPa 0,0 l/m 6,1 km/h (2 Bft) SO 135 2,6 C 2,8 C 6,6 km/h (2 Bft)
07.02.2014 15:40 3,7 C 93 % 1008,5 hPa 0,0 l/m 5,0 km/h (1 Bft) O-SO 112 2,7 C 3,2 C 7,9 km/h (2 Bft)
07.02.2014 15:45 3,7 C 93 % 1008,4 hPa 0,0 l/m 4,0 km/h (1 Bft) W 270 2,7 C 3,6 C 5,3 km/h (1 Bft)
07.02.2014 15:50 3,8 C 93 % 1008,4 hPa 0,0 l/m 4,5 km/h (1 Bft) S-SO 157 2,8 C 3,4 C 4,5 km/h (1 Bft)
07.02.2014 15:55 3,8 C 93 % 1008,4 hPa 0,0 l/m 4,8 km/h (1 Bft) S 180 2,8 C 3,3 C 6,4 km/h (2 Bft)
07.02.2014 16:00 3,7 C 93 % 1008,4 hPa 0,0 l/m 5,3 km/h (1 Bft) S 180 2,7 C 3,1 C 7,6 km/h (2 Bft)
07.02.2014 16:05 3,7 C 93 % 1008,4 hPa 0,0 l/m 5,5 km/h (1 Bft) S 180 2,7 C 3,0 C 6,3 km/h (2 Bft)
07.02.2014 16:10 3,5 C 93 % 1008,4 hPa 0,0 l/m 6,4 km/h (2 Bft) O-SO 112 2,5 C 2,7 C 6,4 km/h (2 Bft)
07.02.2014 16:15 3,7 C 93 % 1008,4 hPa 0,0 l/m 6,1 km/h (2 Bft) S-SO 157 2,7 C 2,8 C 4,2 km/h (1 Bft)
07.02.2014 16:20 3,6 C 93 % 1008,4 hPa 0,0 l/m 4,8 km/h (1 Bft) S 180 2,6 C 3,3 C 6,1 km/h (2 Bft)
07.02.2014 16:25 3,4 C 93 % 1008,7 hPa 0,0 l/m 4,5 km/h (1 Bft) S 180 2,4 C 3,3 C 4,7 km/h (1 Bft)
07.02.2014 16:30 3,4 C 93 % 1008,7 hPa 0,0 l/m 4,2 km/h (1 Bft) SO 135 2,4 C 3,4 C 3,1 km/h (1 Bft)
07.02.2014 16:35 3,5 C 93 % 1008,7 hPa 0,0 l/m 4,3 km/h (1 Bft) O-SO 112 2,5 C 3,2 C 6,0 km/h (2 Bft)
07.02.2014 16:40 3,7 C 94 % 1008,7 hPa 0,0 l/m 4,5 km/h (1 Bft) O-SO 112 2,8 C 3,3 C 6,8 km/h (2 Bft)
07.02.2014 16:45 3,7 C 94 % 1008,5 hPa 0,0 l/m 4,7 km/h (1 Bft) SW 225 2,8 C 3,2 C 6,9 km/h (2 Bft)
07.02.2014 16:49 3,7 C 94 % 1008,5 hPa 0,0 l/m 4,7 km/h (1 Bft) SO 135 2,8 C 3,2 C 6,8 km/h (2 Bft)
07.02.2014 16:50 3,7 C 94 % 1008,5 hPa 0,0 l/m 4,7 km/h (1 Bft) SO 135 2,8 C 3,2 C 6,8 km/h (2 Bft)
07.02.2014 16:55 3,7 C 93 % 1008,5 hPa 0,0 l/m 4,7 km/h (1 Bft) SO 135 2,7 C 3,2 C 6,1 km/h (2 Bft)
07.02.2014 17:00 3,7 C 93 % 1008,5 hPa 0,0 l/m 5,5 km/h (1 Bft) S 180 2,7 C 2,9 C 7,7 km/h (2 Bft)
07.02.2014 17:05 3,7 C 93 % 1008,4 hPa 0,0 l/m 6,1 km/h (2 Bft) S-SO 157 2,7 C 2,8 C 11,9 km/h (2 Bft)
07.02.2014 17:10 3,6 C 93 % 1008,4 hPa 0,0 l/m 7,6 km/h (2 Bft) S-SO 157 2,6 C 1,3 C 7,2 km/h (2 Bft)
07.02.2014 17:15 3,5 C 93 % 1008,4 hPa 0,0 l/m 8,5 km/h (2 Bft) O-SO 112 2,5 C 0,3 C 17,5 km/h (3 Bft)
07.02.2014 17:20 3,5 C 92 % 1008,4 hPa 0,0 l/m 9,2 km/h (2 Bft) SO 135 2,3 C -0,5 C 6,3 km/h (2 Bft)
07.02.2014 17:25 3,4 C 92 % 1008,5 hPa 0,0 l/m 9,5 km/h (2 Bft) SO 135 2,2 C -1,0 C 7,4 km/h (2 Bft)
07.02.2014 17:30 3,3 C 91 % 1008,5 hPa 0,0 l/m 8,2 km/h (2 Bft) O-SO 112 2,0 C 0,5 C 11,4 km/h (2 Bft)
07.02.2014 17:35 3,4 C 91 % 1008,5 hPa 0,0 l/m 7,4 km/h (2 Bft) S 180 2,1 C 1,2 C 7,6 km/h (2 Bft)
07.02.2014 17:40 3,1 C 91 % 1008,5 hPa 0,0 l/m 6,9 km/h (2 Bft) S-SO 157 1,8 C 1,9 C 5,1 km/h (1 Bft)
07.02.2014 17:45 3,1 C 91 % 1008,6 hPa 0,0 l/m 6,3 km/h (2 Bft) S 180 1,8 C 2,4 C 5,6 km/h (1 Bft)
07.02.2014 17:50 3,0 C 91 % 1008,6 hPa 0,0 l/m 6,4 km/h (2 Bft) S-SO 157 1,7 C 2,3 C 6,1 km/h (2 Bft)
07.02.2014 17:55 3,0 C 91 % 1008,6 hPa 0,0 l/m 6,8 km/h (2 Bft) S 180 1,7 C 1,8 C 8,9 km/h (2 Bft)
07.02.2014 18:00 3,1 C 91 % 1008,6 hPa 0,0 l/m 7,4 km/h (2 Bft) S-SO 157 1,8 C 0,8 C 11,6 km/h (2 Bft)
07.02.2014 18:05 3,1 C 91 % 1008,7 hPa 0,0 l/m 9,3 km/h (2 Bft) S-SO 157 1,8 C -1,2 C 9,8 km/h (2 Bft)
07.02.2014 18:10 3,0 C 90 % 1008,7 hPa 0,0 l/m 9,7 km/h (2 Bft) S-SO 157 1,5 C -1,4 C 12,4 km/h (3 Bft)
07.02.2014 18:15 3,0 C 90 % 1008,7 hPa 0,0 l/m 9,0 km/h (2 Bft) S 180 1,5 C -1,1 C 9,0 km/h (2 Bft)
07.02.2014 18:20 3,0 C 90 % 1008,7 hPa 0,0 l/m 7,6 km/h (2 Bft) S-SO 157 1,5 C 0,5 C 8,9 km/h (2 Bft)
07.02.2014 18:25 3,0 C 90 % 1008,4 hPa 0,0 l/m 6,4 km/h (2 Bft) O-SO 112 1,5 C 1,9 C 6,8 km/h (2 Bft)
07.02.2014 18:30 3,1 C 90 % 1008,4 hPa 0,0 l/m 7,1 km/h (2 Bft) S 180 1,6 C 0,9 C 8,5 km/h (2 Bft)
07.02.2014 18:35 3,3 C 90 % 1008,4 hPa 0,0 l/m 8,9 km/h (2 Bft) S-SW 202 1,8 C -1,1 C 16,3 km/h (3 Bft)
07.02.2014 18:40 3,2 C 90 % 1008,4 hPa 0,0 l/m 9,7 km/h (2 Bft) O-SO 112 1,7 C -2,0 C 9,8 km/h (2 Bft)
07.02.2014 18:45 3,3 C 89 % 1009,1 hPa 0,0 l/m 9,3 km/h (2 Bft) SW 225 1,7 C -1,5 C 10,5 km/h (2 Bft)
07.02.2014 18:50 3,2 C 89 % 1009,1 hPa 0,0 l/m 9,3 km/h (2 Bft) S-SO 157 1,6 C -1,4 C 11,9 km/h (2 Bft)
07.02.2014 18:55 3,4 C 87 % 1009,1 hPa 0,0 l/m 9,5 km/h (2 Bft) O-SO 112 1,4 C -1,6 C 9,8 km/h (2 Bft)
07.02.2014 19:00 3,3 C 87 % 1009,1 hPa 0,0 l/m 9,3 km/h (2 Bft) S 180 1,3 C -1,3 C 10,0 km/h (2 Bft)
07.02.2014 19:05 3,3 C 86 % 1009,0 hPa 0,0 l/m 9,5 km/h (2 Bft) S-SO 157 1,2 C -1,6 C 8,4 km/h (2 Bft)
07.02.2014 19:10 3,3 C 85 % 1009,0 hPa 0,0 l/m 10,5 km/h (2 Bft) S-SO 157 1,0 C -2,5 C 16,1 km/h (3 Bft)
07.02.2014 19:15 3,4 C 84 % 1009,0 hPa 0,0 l/m 10,0 km/h (2 Bft) S 180 1,0 C -1,8 C 12,2 km/h (2 Bft)
07.02.2014 19:20 3,4 C 83 % 1009,0 hPa 0,0 l/m 10,5 km/h (2 Bft) SO 135 0,8 C -2,2 C 13,4 km/h (3 Bft)
07.02.2014 19:25 3,5 C 81 % 1009,1 hPa 0,0 l/m 10,6 km/h (2 Bft) S-SO 157 0,6 C -2,4 C 14,6 km/h (3 Bft)
07.02.2014 19:30 3,5 C 80 % 1009,1 hPa 0,0 l/m 10,6 km/h (2 Bft) S-SW 202 0,4 C -2,0 C 9,8 km/h (2 Bft)
07.02.2014 19:35 3,7 C 78 % 1009,1 hPa 0,0 l/m 10,1 km/h (2 Bft) S-SO 157 0,2 C -1,5 C 12,4 km/h (3 Bft)
07.02.2014 19:40 3,7 C 77 % 1009,1 hPa 0,0 l/m 9,2 km/h (2 Bft) O 90 0,1 C -0,5 C 7,9 km/h (2 Bft)
07.02.2014 19:45 3,8 C 75 % 1009,2 hPa 0,0 l/m 9,0 km/h (2 Bft) O-SO 112 -0,2 C -0,2 C 13,0 km/h (3 Bft)
07.02.2014 19:50 3,7 C 76 % 1009,2 hPa 0,0 l/m 8,4 km/h (2 Bft) S-SO 157 -0,1 C 0,4 C 8,5 km/h (2 Bft)
07.02.2014 19:55 3,8 C 76 % 1009,2 hPa 0,0 l/m 7,9 km/h (2 Bft) S 180 -0,0 C 1,0 C 11,4 km/h (2 Bft)
07.02.2014 20:00 3,8 C 75 % 1009,2 hPa 0,0 l/m 8,2 km/h (2 Bft) S-SO 157 -0,2 C 0,8 C 16,1 km/h (3 Bft)
07.02.2014 20:05 3,9 C 73 % 1009,2 hPa 0,0 l/m 9,3 km/h (2 Bft) O-SO 112 -0,5 C -0,5 C 12,2 km/h (2 Bft)
07.02.2014 20:10 3,9 C 73 % 1009,2 hPa 0,0 l/m 9,0 km/h (2 Bft) S 180 -0,5 C 0,0 C 7,6 km/h (2 Bft)
07.02.2014 20:15 3,9 C 71 % 1009,2 hPa 0,0 l/m 8,2 km/h (2 Bft) S 180 -0,9 C 0,9 C 9,3 km/h (2 Bft)
07.02.2014 20:20 4,0 C 68 % 1009,2 hPa 0,0 l/m 7,1 km/h (2 Bft) SO 135 -1,4 C 2,2 C 7,4 km/h (2 Bft)
07.02.2014 20:25 3,8 C 70 % 1009,3 hPa 0,0 l/m 6,8 km/h (2 Bft) O-SO 112 -1,2 C 2,6 C 6,1 km/h (2 Bft)
07.02.2014 20:30 3,8 C 70 % 1009,3 hPa 0,0 l/m 5,8 km/h (2 Bft) SO 135 -1,2 C 3,3 C 5,1 km/h (1 Bft)
07.02.2014 20:35 4,0 C 67 % 1009,3 hPa 0,0 l/m 5,5 km/h (1 Bft) S 180 -1,6 C 3,3 C 12,4 km/h (3 Bft)
07.02.2014 20:40 3,8 C 67 % 1009,3 hPa 0,0 l/m 6,3 km/h (2 Bft) O-SO 112 -1,8 C 3,1 C 7,1 km/h (2 Bft)
07.02.2014 20:45 3,9 C 66 % 1009,8 hPa 0,0 l/m 7,9 km/h (2 Bft) S 180 -1,9 C 1,4 C 6,9 km/h (2 Bft)
07.02.2014 20:50 3,9 C 65 % 1009,8 hPa 0,0 l/m 9,3 km/h (2 Bft) S 180 -2,1 C -0,0 C 12,1 km/h (2 Bft)
07.02.2014 20:55 3,9 C 65 % 1009,8 hPa 0,0 l/m 9,0 km/h (2 Bft) S 180 -2,1 C 0,2 C 15,4 km/h (3 Bft)
07.02.2014 21:00 3,9 C 65 % 1009,8 hPa 0,0 l/m 9,5 km/h (2 Bft) S 180 -2,1 C -0,3 C 17,7 km/h (3 Bft)
07.02.2014 21:05 4,0 C 64 % 1009,8 hPa 0,0 l/m 9,8 km/h (2 Bft) S-SW 202 -2,2 C -0,6 C 7,4 km/h (2 Bft)
07.02.2014 21:10 3,9 C 65 % 1009,8 hPa 0,0 l/m 9,2 km/h (2 Bft) O-SO 112 -2,1 C 0,1 C 9,0 km/h (2 Bft)
07.02.2014 21:15 4,0 C 64 % 1009,8 hPa 0,0 l/m 8,0 km/h (2 Bft) SO 135 -2,2 C 1,3 C 12,1 km/h (2 Bft)
07.02.2014 21:20 4,0 C 64 % 1009,8 hPa 0,0 l/m 6,6 km/h (2 Bft) O-SO 112 -2,2 C 2,9 C 8,7 km/h (2 Bft)
07.02.2014 21:25 3,9 C 65 % 1010,1 hPa 0,0 l/m 6,3 km/h (2 Bft) O-SO 112 -2,1 C 3,1 C 6,9 km/h (2 Bft)
07.02.2014 21:30 3,9 C 65 % 1010,1 hPa 0,0 l/m 6,3 km/h (2 Bft) O 90 -2,1 C 2,9 C 11,4 km/h (2 Bft)
07.02.2014 21:35 3,9 C 65 % 1010,1 hPa 0,0 l/m 6,9 km/h (2 Bft) O-SO 112 -2,1 C 2,1 C 7,2 km/h (2 Bft)
07.02.2014 21:40 3,8 C 66 % 1010,1 hPa 0,0 l/m 6,1 km/h (2 Bft) S-SO 157 -2,0 C 2,8 C 7,4 km/h (2 Bft)
07.02.2014 21:45 3,8 C 66 % 1010,1 hPa 0,0 l/m 5,6 km/h (1 Bft) SO 135 -2,0 C 2,9 C 9,3 km/h (2 Bft)
07.02.2014 21:49 3,9 C 65 % 1010,1 hPa 0,0 l/m 6,3 km/h (2 Bft) NO 45 -2,1 C 2,7 C 11,1 km/h (2 Bft)
07.02.2014 21:50 3,9 C 65 % 1010,1 hPa 0,0 l/m 6,3 km/h (2 Bft) NO 45 -2,1 C 2,7 C 11,1 km/h (2 Bft)
07.02.2014 21:55 3,8 C 65 % 1010,1 hPa 0,0 l/m 6,6 km/h (2 Bft) O-SO 112 -2,2 C 2,4 C 6,8 km/h (2 Bft)
07.02.2014 22:00 3,7 C 66 % 1010,1 hPa 0,0 l/m 6,0 km/h (2 Bft) O-SO 112 -2,0 C 2,6 C 4,3 km/h (1 Bft)
07.02.2014 22:05 3,8 C 66 % 1010,4 hPa 0,0 l/m 6,0 km/h (2 Bft) O-SO 112 -2,0 C 2,4 C 17,5 km/h (3 Bft)
07.02.2014 22:10 3,8 C 65 % 1010,4 hPa 0,0 l/m 6,6 km/h (2 Bft) S 180 -2,2 C 2,1 C 7,2 km/h (2 Bft)
07.02.2014 22:15 3,7 C 66 % 1010,4 hPa 0,0 l/m 6,4 km/h (2 Bft) S 180 -2,0 C 2,3 C 5,5 km/h (1 Bft)
07.02.2014 22:20 3,5 C 67 % 1010,4 hPa 0,0 l/m 5,3 km/h (1 Bft) O-SO 112 -2,0 C 2,7 C 5,0 km/h (1 Bft)
07.02.2014 22:25 3,6 C 67 % 1010,8 hPa 0,0 l/m 5,5 km/h (1 Bft) S-SO 157 -1,9 C 2,6 C 7,6 km/h (2 Bft)
07.02.2014 22:30 3,6 C 67 % 1010,8 hPa 0,0 l/m 5,6 km/h (1 Bft) O-SO 112 -1,9 C 2,6 C 4,3 km/h (1 Bft)
07.02.2014 22:35 3,6 C 67 % 1010,8 hPa 0,0 l/m 5,8 km/h (2 Bft) O-SO 112 -1,9 C 2,5 C 6,9 km/h (2 Bft)
07.02.2014 22:40 3,5 C 66 % 1010,8 hPa 0,0 l/m 6,0 km/h (2 Bft) SO 135 -2,2 C 2,4 C 7,2 km/h (2 Bft)
07.02.2014 22:45 3,4 C 67 % 1010,4 hPa 0,0 l/m 5,8 km/h (2 Bft) S-SO 157 -2,1 C 2,4 C 4,2 km/h (1 Bft)
07.02.2014 22:50 3,2 C 67 % 1010,4 hPa 0,0 l/m 4,5 km/h (1 Bft) S-SO 157 -2,3 C 2,8 C 4,5 km/h (1 Bft)
07.02.2014 22:55 3,3 C 68 % 1010,4 hPa 0,0 l/m 4,7 km/h (1 Bft) S 180 -2,0 C 2,6 C 5,6 km/h (1 Bft)
07.02.2014 23:00 3,3 C 68 % 1010,4 hPa 0,0 l/m 5,5 km/h (1 Bft) S-SO 157 -2,0 C 2,3 C 5,3 km/h (1 Bft)
07.02.2014 23:05 3,0 C 69 % 1010,7 hPa 0,0 l/m 5,3 km/h (1 Bft) NO 45 -2,1 C 2,2 C 6,8 km/h (2 Bft)
07.02.2014 23:10 3,2 C 69 % 1010,7 hPa 0,0 l/m 5,6 km/h (1 Bft) O-SO 112 -1,9 C 2,1 C 4,3 km/h (1 Bft)
07.02.2014 23:15 3,1 C 69 % 1010,7 hPa 0,0 l/m 5,8 km/h (2 Bft) SO 135 -2,0 C 2,1 C 6,8 km/h (2 Bft)
07.02.2014 23:20 3,2 C 69 % 1010,7 hPa 0,0 l/m 4,7 km/h (1 Bft) O 90 -1,9 C 2,6 C 5,5 km/h (1 Bft)
07.02.2014 23:25 3,3 C 69 % 1010,7 hPa 0,0 l/m 4,3 km/h (1 Bft) SO 135 -1,8 C 2,8 C 5,1 km/h (1 Bft)
07.02.2014 23:30 3,2 C 69 % 1010,7 hPa 0,0 l/m 3,1 km/h (1 Bft) S-SO 157 -1,9 C 3,3 C 2,9 km/h (1 Bft)
07.02.2014 23:35 3,2 C 69 % 1010,7 hPa 0,0 l/m 2,9 km/h (1 Bft) SO 135 -1,9 C 3,3 C 1,8 km/h (1 Bft)
07.02.2014 23:40 3,1 C 70 % 1010,7 hPa 0,0 l/m 3,1 km/h (1 Bft) O-SO 112 -1,8 C 3,1 C 2,6 km/h (1 Bft)
07.02.2014 23:45 3,1 C 70 % 1010,6 hPa 0,0 l/m 2,7 km/h (1 Bft) O 90 -1,8 C 3,2 C 3,2 km/h (1 Bft)
07.02.2014 23:50 2,9 C 71 % 1010,6 hPa 0,0 l/m 1,9 km/h (1 Bft) O-SO 112 -1,8 C 3,0 C 3,7 km/h (1 Bft)
07.02.2014 23:55 3,0 C 70 % 1010,6 hPa 0,0 l/m 3,1 km/h (1 Bft) SO 135 -1,9 C 2,7 C 6,8 km/h (2 Bft)
_ Min-Zeit 02:50 06:55 06:00 - 10:25 - - 02:50 14:10 10:30
Minimum _ -1,0 C 44 % 1002,2 hPa - 0,2 km/h (0 Bft) - - -5,8 C -4,3 C 0,0 km/h (0 Bft)
_ Max-Zeit 12:30 16:50 22:40 23:55 14:00 - - 16:50 11:15 14:10
Maximum _ 8,5 C 94 % 1010,8 hPa 0,0 l/m 16,3 km/h
S-SW (3 Bft)
- - 2,8 C 14,3 C 29,6 km/h
S-SO (5 Bft)
Durchschnitt _ 4,2 C 67 % 1006,6 hPa #0,0 l/m 5,6 km/h (1 Bft) S - -1,7 C 3,6 C 7,1 km/h (2 Bft)